Regional Weather Roundup
Issued by NWS Charleston, SC

Home | Current Version | Previous Version | Text Only | Print | Product List | Glossary On
Versions: 1 2 3 4 5 6 7 8 9 10 11 12 13 14 15 16 17 18 19 20 21 22 23 24 25 26 27 28 29 30 31 32 33 34 35 36 37 38 39 40 41 42 43 44 45 46 47 48 49 50
000
ASUS42 KCHS 300827
RWRCHS

REGIONAL WEATHER ROUNDUP
NATIONAL WEATHER SERVICE CHARLESTON SC
400 AM EDT THU JUL 30 2015

NOTE: "FAIR" INDICATES FEW OR NO CLOUDS BELOW 12,000 FEET WITH NO
SIGNIFICANT WEATHER AND/OR OBSTRUCTIONS TO VISIBILITY.

NOT ALL STATIONS ARE QUALITY CONTROLLED BY THE NATIONAL
WEATHER SERVICE. USE DATA WITH CAUTION...ESPECIALLY
DEWPOINT OBSERVATIONS.

SCZ027-030-031-034>040-042>050-300900-
...SOUTHEAST SOUTH CAROLINA...

CITY           SKY/WX    TMP DP  RH WIND       PRES   REMARKS
N CHARLESTON   CLEAR     76  74  93 NW7       29.94S
WATERFRONT PRK   N/A     80  78  94 N5        29.91F
MOUNT PLEASANT LGT RAIN  75  75 100 N3        29.94S
JOHNS ISLAND   FAIR      77  77 100 CALM      29.93S
PINOPOLIS      NOT AVBL
MONCKS CORNER  FAIR      75  72  88 CALM      29.93F
SUMMERVILLE    FAIR      73  73 100 CALM      29.95F
BEAUFORT MCAS  MOCLDY    81  79  94 NW5       29.94F
BEAUFORT ARPT  FAIR      79  79 100 CALM      29.92F
HILTON HEAD IS PTCLDY    81  79  94 W5        29.94F
WALTERBORO     MOSUNNY   77  73  88 CALM      29.95F
ALLENDALE      FAIR      77  75  94 CALM      29.93F

...SOUTHERN MIDLANDS AND PEE DEE...

CITY           SKY/WX    TMP DP  RH WIND       PRES   REMARKS
GEORGETOWN     NOT AVBL
KINGSTREE      NOT AVBL
ORANGEBURG     CLEAR     77  74  90 CALM      29.96F
BARNWELL       FAIR      79  75  89 CALM      29.95F
AIKEN          FAIR      73  70  88 CALM      29.99F
MANNING        FAIR      72  64  78 CALM      29.95F
COLUMBIA       PTCLDY    80  73  79 CALM      29.94F
SUMTER         CLEAR     78  71  81 S2        29.94F
FLORENCE       CLEAR     75  70  84 CALM      29.96S
MYRTLE BEACH   CLEAR     75  72  88 CALM      29.96S
N MYRTLE BEACH CLEAR     74  71  91 CALM      29.94F

$$

GAZ063-065-086>088-099>101-113>116-118-119-134>141-150-300900-
...SOUTHEAST GEORGIA...

CITY           SKY/WX    TMP DP  RH WIND       PRES   REMARKS
SAVANNAH ARPT  CLEAR     77  73  87 CALM      29.94F
HUNTER AAF     CLEAR     76  76 100 W2        29.91F
FORT STEWART   CLEAR     74  72  92 CALM      29.92F
STATESBORO     CLEAR     74  72  92 CALM      29.94F
SYLVANIA       MOSUNNY   78  75  92 CALM      29.94F
CLAXTON        FAIR      73  72  94 CALM      29.93F

...CSRA...CENTRAL AND FAR SOUTHEAST GEORGIA...

CITY           SKY/WX    TMP DP  RH WIND       PRES   REMARKS
THOMSON        CLEAR     78  76  94 CALM      29.99F
AUGUSTA-BUSH   MOCLDY    77  76  96 SW5       29.94F
AUGUSTA-DANIEL MOCLDY    78  72  81 SW7       29.96F
SWAINSBORO     FAIR     N/A N/A N/A CALM      29.95F
VIDALIA        HVY RAIN  75  73  94 CALM      29.93F
EASTMAN        FAIR      77  77 100 CALM      29.96F
HAZLEHURST     FAIR      78  78 100 CALM      29.92F
ALMA           FOG       74  74 100 CALM      29.93S VSB 1/2
WAYCROSS       CLEAR     77  77 100 CALM      29.92F FOG
JESUP          FAIR      77  73  88 CALM      29.93S
BAXLEY         FAIR      77  73  88 CALM      29.93S
BRUNSWICK      CLEAR     73  73 100 CALM      29.93F
SAINT SIMONS   CLEAR     77  74  90 NW7       29.92F

$$

SCZ027-028-034-036>038-045-046-048>050-GAZ119-141-300900-
...LAKE AND SUPPLEMENTAL COASTAL OBSERVATIONS...

STATION/POSITION TIME  TEMP    WIND        PRES    WAVE   SWELL
                       AIR SEA DIR/SP/G            HT/PER HT/PER/DIR
                 (UTC) (F)     (DEG/KT/KT) (MB)    (FT/S) (FT/S/D)
UPR LAKE MARION  NOT AVBL
WINYAH BAY       0700   76     320/  2     1013.0F
LAKE MURRAY      0700   81     190/  9/ 12 1013.9F
ACE BASIN NERRS  NOT AVBL
FORT PULASKI     0800   80                 1014.0
SAPELO ISLAND    0800   78     340/  6     1013.0F

$$

ANZ835-935-AMZ111-154-330-350-352-354-370-450-454-472-300900-
...C-MAN AND BUOY OBSERVATIONS...

STATION/POSITION TIME  TEMP    WIND        PRES    WAVE   SWELL
                       AIR SEA DIR/SP/G            HT/PER HT/PER/DIR
                 (UTC) (F)     (DEG/KT/KT) (MB)    (FT/S) (FT/S/D)
BUOY 41004       0750   82 84   10/ 10/ 12 1012.3F   3/ 7   3/ 7
BUOY 41008       0750   82 83  320/ 12/ 14 1013.1F   2/ 6   2/100/ 6
FOLLY BEACH CMAN 0800   78     320/  3/  5 1013.7F
CAPERS NEARSHORE 0708   81     360/  6/  8 1013.8F
FRIPP NEARSHORE  0700   82     320/  2/  4 1013.7F


STATION/POSITION TIME  TEMP    WIND        PRES    WAVE   SWELL
                       AIR SEA DIR/SP/G            HT/PER HT/PER/DIR
                 (UTC) (F)     (DEG/KT/KT) (MB)    (FT/S) (FT/S/D)
5E ST. MARYS GA  0721      83                N/A     2/11
FRYING PAN BUOY  0750   82 84   30/  8/ 10 1013.3F   3/ 5   3/ 90/ 5
BUOY 41025       0750   83 85  170/ 12/ 14 1013.9F   3/ 7   3/130/ 7
CAPE LOOKOUT NC  0800   81      90/  6/  6 1012.6F
BUOY 41002       0750   82 81  180/ 14/ 16 1014.5R   8/ 8   7/220/ 8
BUOY 41010       0720   83 84  240/ 14/ 16 1013.1F
ST AUGUSTINE FL  0800   74 81  250/  3/  4 1014.8R


$$


USA.gov is the U.S. government's official web portal to all federal, state and local government web resources and services.